Starlink 6051

operational
NORAD ID: 56463 Int'l Des: 2023-064 Owner: SPXS Country: US Constellation: starlink
LEOCIRCULAR

Starlink 6051について

説明を読み込み中...

リアルタイム位置

3D地球を読み込み中...

次回通過

高度履歴

Altitude vs Time

uPlot chart will show altitude changes over time

軌道要素

1 56463U 23064R 25303.90789178 .00000421 00000-0 43059-4 0 9993
2 56463 69.9994 111.7706 0002815 268.9919 91.0918 14.98333888135805
Epoch: Oct 30, 2025 • Age: 15 hours

現在のステータス

高度 582.6 km
速度 7.57 km/s
衛星直下点 56.30°N, 84.25°W
打ち上げ日 May 10, 2023
運用期間 2.4 years
タイプ internet

技術仕様

分類 Payload
質量 305.00 kg
乾燥質量 290.00 kg
総質量 305.00 kg
長さ 0.20 m
直径 2.80 m
スパン 9.00 m
形状 Box + pan
製造者 SPXS
バスタイプ Starlink
フェーズステータス In Orbit
所有者/国 SPXS/US

大規模コンステレーション

Loading constellations...